ASA779 KLAS-KPDX

Flight info

Callsign ASA779
Flight time 1h 51m
Altitude 34000
Route JOHKR5 KENNO OAL HARTT SOERN TMBRS4
Aircraft B739/M-SDE2E3FGHIRWXY/LB1

Departure

Time 2026-05-07 04:56
Airport Harry Reid International Airport (KLAS)

Arrival

Time 2026-05-07 06:47
Airport Portland International Airport (KPDX)
Time Latitude Longitude Altitude Speed Heading
2026-05-07 04:22 36.08087 -115.13688 2189 ft 0 kts 47°
2026-05-07 04:42 36.08085 -115.13691 2189 ft 1 kts 47°
2026-05-07 04:43 36.08074 -115.13705 2189 ft 2 kts 50°
2026-05-07 04:43 36.08064 -115.13720 2189 ft 2 kts 54°
2026-05-07 04:43 36.08056 -115.13736 2189 ft 2 kts 60°
2026-05-07 04:43 36.08050 -115.13749 2189 ft 2 kts 66°
2026-05-07 04:44 36.08044 -115.13772 2189 ft 1 kts 89°
2026-05-07 04:44 36.08046 -115.13789 2189 ft 2 kts 124°
2026-05-07 04:44 36.08049 -115.13794 2189 ft 0 kts 131°
2026-05-07 04:50 36.08048 -115.13793 2189 ft 1 kts 131°
2026-05-07 04:50 36.08043 -115.13786 2189 ft 3 kts 131°
2026-05-07 04:50 36.08024 -115.13760 2189 ft 5 kts 131°
2026-05-07 04:51 36.07994 -115.13717 2189 ft 8 kts 131°
2026-05-07 04:51 36.07953 -115.13661 2189 ft 10 kts 131°
2026-05-07 04:51 36.07910 -115.13586 2189 ft 11 kts 109°
2026-05-07 04:51 36.07856 -115.13525 2189 ft 12 kts 160°
2026-05-07 04:52 36.07830 -115.13441 2189 ft 12 kts 91°
2026-05-07 04:52 36.07828 -115.13332 2189 ft 13 kts 91°
2026-05-07 04:52 36.07827 -115.13215 2189 ft 14 kts 91°
2026-05-07 04:52 36.07825 -115.13086 2189 ft 15 kts 91°
2026-05-07 04:53 36.07823 -115.12949 2189 ft 16 kts 91°
2026-05-07 04:53 36.07821 -115.12807 2189 ft 17 kts 91°
2026-05-07 04:53 36.07820 -115.12680 2189 ft 10 kts 92°
2026-05-07 04:53 36.07792 -115.12605 2189 ft 6 kts 147°
2026-05-07 04:54 36.07749 -115.12594 2189 ft 8 kts 172°
2026-05-07 04:54 36.07689 -115.12594 2189 ft 10 kts 182°
2026-05-07 04:54 36.07636 -115.12627 2189 ft 7 kts 270°
2026-05-07 04:54 36.07636 -115.12637 2189 ft 0 kts 269°
2026-05-07 04:55 36.07626 -115.12774 2189 ft 48 kts 269°
2026-05-07 04:55 36.07631 -115.13485 2189 ft 115 kts 270°
2026-05-07 04:55 36.07632 -115.14722 2191 ft 171 kts 270°
2026-05-07 04:56 36.07634 -115.16239 2807 ft 172 kts 270°
2026-05-07 04:56 36.07644 -115.17704 3624 ft 171 kts 271°
2026-05-07 04:56 36.07644 -115.19176 4395 ft 171 kts 268°
2026-05-07 04:56 36.07513 -115.20646 5067 ft 174 kts 264°
2026-05-07 04:57 36.07336 -115.22136 5693 ft 176 kts 263°
2026-05-07 04:57 36.07154 -115.23631 6301 ft 178 kts 263°
2026-05-07 04:57 36.06933 -115.25142 6874 ft 181 kts 250°
2026-05-07 04:57 36.06195 -115.26392 7239 ft 188 kts 213°
2026-05-07 04:58 36.04973 -115.27072 7526 ft 200 kts 193°
2026-05-07 04:58 36.03560 -115.27554 7839 ft 220 kts 193°
2026-05-07 04:58 36.02003 -115.28187 8022 ft 247 kts 195°
2026-05-07 04:58 36.00364 -115.28899 8004 ft 258 kts 196°
2026-05-07 04:59 35.98591 -115.29778 8128 ft 283 kts 202°
2026-05-07 04:59 35.96829 -115.30905 8939 ft 287 kts 205°
2026-05-07 04:59 35.95093 -115.32064 10044 ft 280 kts 206°
2026-05-07 04:59 35.93354 -115.33220 10605 ft 294 kts 207°
2026-05-07 05:00 35.91494 -115.34444 10930 ft 311 kts 207°
2026-05-07 05:00 35.89697 -115.35952 10984 ft 319 kts 224°
2026-05-07 05:00 35.88415 -115.38177 10991 ft 318 kts 247°
2026-05-07 05:00 35.87881 -115.40780 10991 ft 313 kts 269°
2026-05-07 05:01 35.88129 -115.43399 11002 ft 307 kts 288°
2026-05-07 05:01 35.88667 -115.45952 11005 ft 309 kts 283°
2026-05-07 05:01 35.88844 -115.48592 11001 ft 312 kts 274°
2026-05-07 05:01 35.88840 -115.51265 10997 ft 312 kts 273°
2026-05-07 05:02 35.88854 -115.53939 10995 ft 312 kts 273°
2026-05-07 05:02 35.88877 -115.56641 11024 ft 316 kts 274°
2026-05-07 05:02 35.88939 -115.59396 11302 ft 337 kts 274°
2026-05-07 05:02 35.89003 -115.62360 11611 ft 357 kts 274°
2026-05-07 05:03 35.89067 -115.65520 11933 ft 375 kts 274°
2026-05-07 05:03 35.89128 -115.68785 12473 ft 384 kts 274°
2026-05-07 05:03 35.89187 -115.72096 13146 ft 389 kts 274°
2026-05-07 05:03 35.89245 -115.75462 13821 ft 394 kts 274°
2026-05-07 05:04 35.89301 -115.78851 14488 ft 397 kts 274°
2026-05-07 05:04 35.89356 -115.82246 15302 ft 397 kts 274°
2026-05-07 05:04 35.89411 -115.85672 15871 ft 403 kts 274°
2026-05-07 05:04 35.89484 -115.89034 16445 ft 406 kts 277°
2026-05-07 05:05 35.90091 -115.92465 17012 ft 404 kts 294°
2026-05-07 05:05 35.91448 -115.95569 17589 ft 401 kts 309°
2026-05-07 05:05 35.93212 -115.98223 18135 ft 402 kts 316°
2026-05-07 05:05 35.95124 -116.00738 18659 ft 405 kts 318°
2026-05-07 05:06 35.97116 -116.03214 19218 ft 407 kts 319°
2026-05-07 05:06 35.99128 -116.05693 19770 ft 410 kts 319°
2026-05-07 05:06 36.01151 -116.08191 20268 ft 414 kts 319°
2026-05-07 05:06 36.03187 -116.10708 20760 ft 417 kts 319°
2026-05-07 05:07 36.05245 -116.13256 21224 ft 421 kts 319°
2026-05-07 05:07 36.07327 -116.15805 21700 ft 423 kts 319°
2026-05-07 05:07 36.09419 -116.18380 22147 ft 426 kts 319°
2026-05-07 05:07 36.11514 -116.20969 22579 ft 429 kts 318°
2026-05-07 05:08 36.13621 -116.23582 22986 ft 432 kts 318°
2026-05-07 05:08 36.14773 -116.25014 23204 ft 434 kts 318°
2026-05-07 05:08 36.16648 -116.27347 23583 ft 435 kts 318°
2026-05-07 05:08 36.18795 -116.30021 23966 ft 438 kts 318°
2026-05-07 05:09 36.20946 -116.32705 24341 ft 440 kts 318°
2026-05-07 05:09 36.23094 -116.35386 24938 ft 435 kts 318°
2026-05-07 05:09 36.25213 -116.38032 25485 ft 434 kts 318°
2026-05-07 05:09 36.27355 -116.40707 25734 ft 438 kts 317°
2026-05-07 05:10 36.29523 -116.43381 26054 ft 439 kts 319°
2026-05-07 05:10 36.31743 -116.45997 26378 ft 441 kts 319°
2026-05-07 05:10 36.33952 -116.48603 26696 ft 442 kts 319°
2026-05-07 05:10 36.36177 -116.51243 27049 ft 442 kts 319°
2026-05-07 05:11 36.38396 -116.53884 27347 ft 443 kts 319°
2026-05-07 05:11 36.40614 -116.56530 27656 ft 444 kts 319°
2026-05-07 05:11 36.42843 -116.59190 27930 ft 445 kts 319°
2026-05-07 05:11 36.45076 -116.61850 28186 ft 446 kts 319°
2026-05-07 05:12 36.47357 -116.64446 28446 ft 447 kts 321°
2026-05-07 05:12 36.49666 -116.67044 28693 ft 448 kts 320°
2026-05-07 05:12 36.51981 -116.69656 28947 ft 450 kts 316°
2026-05-07 05:12 36.54303 -116.72276 28959 ft 456 kts 314°
2026-05-07 05:13 36.56612 -116.74954 29446 ft 449 kts 318°
2026-05-07 05:13 36.58882 -116.77545 30281 ft 436 kts 320°
2026-05-07 05:13 36.61113 -116.80070 30660 ft 434 kts 320°
2026-05-07 05:13 36.63348 -116.82612 30874 ft 435 kts 319°
2026-05-07 05:14 36.65574 -116.85153 31176 ft 434 kts 319°
2026-05-07 05:14 36.67795 -116.87695 31438 ft 434 kts 319°
2026-05-07 05:14 36.70014 -116.90238 31664 ft 434 kts 319°
2026-05-07 05:14 36.72329 -116.92713 31894 ft 433 kts 324°
2026-05-07 05:15 36.74747 -116.94847 32128 ft 431 kts 329°
2026-05-07 05:15 36.77342 -116.96721 32388 ft 430 kts 333°
2026-05-07 05:15 36.79979 -116.98470 32587 ft 430 kts 333°
2026-05-07 05:15 36.82618 -117.00195 32798 ft 430 kts 334°
2026-05-07 05:16 36.85265 -117.01922 33020 ft 429 kts 334°
2026-05-07 05:16 36.87904 -117.03643 33218 ft 429 kts 334°
2026-05-07 05:16 36.90560 -117.05374 33409 ft 429 kts 334°
2026-05-07 05:16 36.93202 -117.07083 33515 ft 432 kts 329°
2026-05-07 05:17 36.95842 -117.08814 33935 ft 425 kts 330°
2026-05-07 05:17 36.98499 -117.10562 34079 ft 428 kts 335°
2026-05-07 05:17 37.03842 -117.14020 34080 ft 438 kts 336°
2026-05-07 05:18 37.09306 -117.17563 34097 ft 448 kts 335°
2026-05-07 05:18 37.14798 -117.21152 34126 ft 441 kts 335°
2026-05-07 05:19 37.20179 -117.24679 34127 ft 434 kts 335°
2026-05-07 05:19 37.25516 -117.28183 34133 ft 433 kts 335°
2026-05-07 05:20 37.30874 -117.31688 34160 ft 436 kts 336°
2026-05-07 05:20 37.36209 -117.35137 34163 ft 432 kts 335°
2026-05-07 05:21 37.44246 -117.40351 34168 ft 430 kts 335°
2026-05-07 05:22 37.49588 -117.43837 34199 ft 433 kts 332°
2026-05-07 05:22 37.54873 -117.47278 34202 ft 424 kts 333°
2026-05-07 05:23 37.60086 -117.50670 34205 ft 421 kts 333°
2026-05-07 05:23 37.65289 -117.54043 34208 ft 421 kts 333°
2026-05-07 05:24 37.70495 -117.57434 34206 ft 421 kts 333°
2026-05-07 05:24 37.75678 -117.60805 34211 ft 421 kts 333°
2026-05-07 05:25 37.80870 -117.64202 34211 ft 421 kts 333°
2026-05-07 05:25 37.86094 -117.67634 34208 ft 422 kts 333°
2026-05-07 05:26 37.91290 -117.71055 34208 ft 421 kts 333°
2026-05-07 05:26 37.96459 -117.74463 34208 ft 421 kts 333°
2026-05-07 05:27 38.01664 -117.77956 34208 ft 421 kts 330°
2026-05-07 05:27 38.06693 -117.81763 34206 ft 421 kts 329°
2026-05-07 05:28 38.11685 -117.85594 34211 ft 421 kts 329°
2026-05-07 05:28 38.16712 -117.89431 34205 ft 424 kts 327°
2026-05-07 05:29 38.21790 -117.93316 34211 ft 433 kts 324°
2026-05-07 05:29 38.27012 -117.97331 34210 ft 442 kts 324°
2026-05-07 05:30 38.32322 -118.01399 34212 ft 449 kts 324°
2026-05-07 05:30 38.37656 -118.05475 34208 ft 445 kts 324°
2026-05-07 05:31 38.42912 -118.09501 34205 ft 440 kts 324°
2026-05-07 05:31 38.48222 -118.13580 34200 ft 447 kts 324°
2026-05-07 05:32 38.53585 -118.17727 34200 ft 457 kts 332°
2026-05-07 05:32 38.59105 -118.21976 34195 ft 467 kts 331°
2026-05-07 05:33 38.64706 -118.26281 34202 ft 477 kts 329°
2026-05-07 05:33 38.70462 -118.30737 34201 ft 486 kts 328°
2026-05-07 05:34 38.76273 -118.35250 34200 ft 493 kts 326°
2026-05-07 05:34 38.82083 -118.39766 34197 ft 489 kts 327°
2026-05-07 05:35 38.87832 -118.44239 34204 ft 468 kts 325°
2026-05-07 05:35 38.90565 -118.46373 34194 ft 453 kts 325°
2026-05-07 05:35 38.93227 -118.48453 34173 ft 447 kts 324°
2026-05-07 05:36 38.98598 -118.52654 34192 ft 453 kts 324°
2026-05-07 05:36 39.03973 -118.56877 34206 ft 454 kts 325°
2026-05-07 05:36 39.06661 -118.59001 34193 ft 442 kts 326°
2026-05-07 05:37 39.09257 -118.61036 34183 ft 433 kts 327°
2026-05-07 05:37 39.14345 -118.65027 34175 ft 425 kts 328°
2026-05-07 05:38 39.19346 -118.68957 34175 ft 424 kts 328°
2026-05-07 05:38 39.24397 -118.72937 34173 ft 426 kts 328°
2026-05-07 05:39 39.29475 -118.76945 34173 ft 426 kts 329°
2026-05-07 05:39 39.34510 -118.80928 34173 ft 425 kts 329°
2026-05-07 05:40 39.39569 -118.84921 34171 ft 428 kts 327°
2026-05-07 05:40 39.44668 -118.88972 34175 ft 433 kts 326°
2026-05-07 05:41 39.49785 -118.93064 34173 ft 430 kts 328°
2026-05-07 05:41 39.54837 -118.97084 34172 ft 426 kts 329°
2026-05-07 05:42 39.59920 -119.01116 34176 ft 433 kts 326°
2026-05-07 05:42 39.65088 -119.05261 34199 ft 440 kts 327°
2026-05-07 05:43 39.70339 -119.09488 34164 ft 447 kts 329°
2026-05-07 05:43 39.74765 -119.13039 34204 ft 451 kts 330°
2026-05-07 05:44 39.80048 -119.17278 34195 ft 442 kts 330°
2026-05-07 05:44 39.85255 -119.21466 34191 ft 440 kts 331°
2026-05-07 05:45 39.90476 -119.25675 34190 ft 442 kts 331°
2026-05-07 05:45 39.95721 -119.29909 34193 ft 438 kts 330°
2026-05-07 05:46 40.00948 -119.34147 34200 ft 448 kts 330°
2026-05-07 05:46 40.06294 -119.38478 34197 ft 458 kts 330°
2026-05-07 05:47 40.11704 -119.42852 34208 ft 452 kts 327°
2026-05-07 05:47 40.16939 -119.47118 34197 ft 439 kts 326°
2026-05-07 05:48 40.22154 -119.51373 34197 ft 447 kts 324°
2026-05-07 05:48 40.27490 -119.55740 34202 ft 450 kts 326°
2026-05-07 05:49 40.32749 -119.60045 34201 ft 447 kts 325°
2026-05-07 05:49 40.38028 -119.64379 34201 ft 442 kts 326°
2026-05-07 05:50 40.43143 -119.68585 34199 ft 433 kts 326°
2026-05-07 05:50 40.48343 -119.72856 34195 ft 443 kts 325°
2026-05-07 05:51 40.53599 -119.77195 34199 ft 453 kts 325°
2026-05-07 05:51 40.58998 -119.81644 34201 ft 463 kts 326°
2026-05-07 05:52 40.64501 -119.86190 34204 ft 472 kts 325°
2026-05-07 05:52 40.70075 -119.90820 34202 ft 475 kts 326°
2026-05-07 05:53 40.75644 -119.95459 34200 ft 474 kts 325°
2026-05-07 05:53 40.81222 -120.00109 34206 ft 466 kts 324°
2026-05-07 05:54 40.86654 -120.04592 34210 ft 463 kts 326°
2026-05-07 05:54 40.92155 -120.09058 34213 ft 470 kts 326°
2026-05-07 05:55 40.97808 -120.13682 34224 ft 477 kts 329°
2026-05-07 05:55 41.03324 -120.18200 34225 ft 460 kts 331°
2026-05-07 05:56 41.08730 -120.22616 34225 ft 451 kts 331°
2026-05-07 05:56 41.14021 -120.26935 34230 ft 441 kts 330°
2026-05-07 05:57 41.19193 -120.31154 34230 ft 434 kts 330°
2026-05-07 05:57 41.24330 -120.35361 34230 ft 434 kts 330°
2026-05-07 05:58 41.29462 -120.39579 34230 ft 435 kts 330°
2026-05-07 05:58 41.34623 -120.43830 34230 ft 435 kts 330°
2026-05-07 05:59 41.39769 -120.48080 34230 ft 435 kts 330°
2026-05-07 05:59 41.44900 -120.52327 34230 ft 435 kts 330°
2026-05-07 06:00 41.50014 -120.56567 34230 ft 435 kts 330°
2026-05-07 06:00 41.55158 -120.60841 34230 ft 435 kts 330°
2026-05-07 06:01 41.60290 -120.65114 34230 ft 435 kts 330°
2026-05-07 06:01 41.65422 -120.69394 34230 ft 435 kts 330°
2026-05-07 06:02 41.70580 -120.73710 34225 ft 442 kts 331°
2026-05-07 06:02 41.75863 -120.78132 34232 ft 452 kts 331°
2026-05-07 06:03 41.81235 -120.82636 34246 ft 460 kts 330°
2026-05-07 06:03 41.86608 -120.87124 34232 ft 452 kts 326°
2026-05-07 06:04 41.91844 -120.91549 34229 ft 437 kts 326°
2026-05-07 06:04 41.96940 -120.95880 34230 ft 432 kts 328°
2026-05-07 06:05 42.02026 -121.00178 34230 ft 432 kts 329°
2026-05-07 06:05 42.07135 -121.04501 34230 ft 432 kts 329°
2026-05-07 06:06 42.12226 -121.08820 34230 ft 432 kts 329°
2026-05-07 06:06 42.17300 -121.13134 34230 ft 432 kts 329°
2026-05-07 06:07 42.22375 -121.17457 34230 ft 432 kts 329°
2026-05-07 06:07 42.27456 -121.21795 34230 ft 434 kts 329°
2026-05-07 06:08 42.32555 -121.26158 34230 ft 434 kts 329°
2026-05-07 06:08 42.37680 -121.30550 34230 ft 433 kts 329°
2026-05-07 06:09 42.42793 -121.34941 34230 ft 434 kts 329°
2026-05-07 06:09 42.47876 -121.39315 34230 ft 434 kts 329°
2026-05-07 06:10 42.52996 -121.43730 34230 ft 434 kts 329°
2026-05-07 06:10 42.58079 -121.48106 34227 ft 434 kts 326°
2026-05-07 06:11 42.63152 -121.52506 34227 ft 433 kts 327°
2026-05-07 06:11 42.68241 -121.56938 34230 ft 433 kts 329°
2026-05-07 06:12 42.73322 -121.61330 34226 ft 436 kts 326°
2026-05-07 06:12 42.78486 -121.65823 34229 ft 446 kts 328°
2026-05-07 06:13 42.83763 -121.70422 34212 ft 455 kts 329°
2026-05-07 06:13 42.89105 -121.75099 34225 ft 464 kts 330°
2026-05-07 06:14 42.94494 -121.79830 34224 ft 451 kts 330°
2026-05-07 06:14 42.99697 -121.84403 34223 ft 442 kts 330°
2026-05-07 06:15 43.04970 -121.88715 34226 ft 440 kts 333°
2026-05-07 06:15 43.10325 -121.92801 34235 ft 441 kts 333°
2026-05-07 06:16 43.15685 -121.96937 34240 ft 442 kts 333°
2026-05-07 06:16 43.21016 -122.01080 34239 ft 441 kts 333°
2026-05-07 06:17 43.26375 -122.05219 34240 ft 440 kts 333°
2026-05-07 06:17 43.31724 -122.09370 34223 ft 447 kts 329°
2026-05-07 06:18 43.37168 -122.13645 34240 ft 456 kts 328°
2026-05-07 06:18 43.42702 -122.18007 34260 ft 463 kts 327°
2026-05-07 06:19 43.48203 -122.22343 34244 ft 443 kts 328°
2026-05-07 06:19 43.53531 -122.26534 34243 ft 439 kts 328°
2026-05-07 06:20 43.58793 -122.30670 34242 ft 433 kts 328°
2026-05-07 06:20 43.63993 -122.34788 34242 ft 430 kts 331°
2026-05-07 06:21 43.69191 -122.38889 34242 ft 431 kts 331°
2026-05-07 06:21 43.74382 -122.42997 34243 ft 430 kts 331°
2026-05-07 06:22 43.79563 -122.47105 34243 ft 429 kts 330°
2026-05-07 06:22 43.87363 -122.53263 34048 ft 428 kts 330°
2026-05-07 06:23 43.89949 -122.55301 33371 ft 426 kts 330°
2026-05-07 06:23 43.92518 -122.57337 32662 ft 425 kts 329°
2026-05-07 06:23 43.95074 -122.59371 32103 ft 420 kts 329°
2026-05-07 06:23 43.97315 -122.61160 31629 ft 416 kts 329°
2026-05-07 06:24 43.99647 -122.63026 31138 ft 411 kts 329°
2026-05-07 06:24 44.01308 -122.64356 30776 ft 408 kts 329°
2026-05-07 06:24 44.03506 -122.66118 30304 ft 404 kts 329°
2026-05-07 06:24 44.05592 -122.67792 29868 ft 400 kts 329°
2026-05-07 06:25 44.08029 -122.69749 29415 ft 393 kts 329°
2026-05-07 06:25 44.10397 -122.71652 28861 ft 390 kts 329°
2026-05-07 06:25 44.12786 -122.73333 28351 ft 388 kts 338°
2026-05-07 06:25 44.15419 -122.74279 27898 ft 385 kts 349°
2026-05-07 06:26 44.18097 -122.74581 27327 ft 386 kts 355°
2026-05-07 06:26 44.20771 -122.74572 26814 ft 384 kts 358°
2026-05-07 06:26 44.23440 -122.74400 26326 ft 381 kts
2026-05-07 06:26 44.26104 -122.74167 25830 ft 378 kts
2026-05-07 06:27 44.28689 -122.73933 25345 ft 375 kts
2026-05-07 06:27 44.31285 -122.73691 24863 ft 371 kts
2026-05-07 06:27 44.33864 -122.73446 24404 ft 368 kts
2026-05-07 06:27 44.36386 -122.73203 23931 ft 372 kts
2026-05-07 06:28 44.39010 -122.72947 23438 ft 378 kts
2026-05-07 06:28 44.41678 -122.72685 22939 ft 381 kts
2026-05-07 06:28 44.44316 -122.72425 22444 ft 379 kts
2026-05-07 06:28 44.46932 -122.72166 21956 ft 376 kts
2026-05-07 06:29 44.49519 -122.71909 21467 ft 372 kts
2026-05-07 06:29 44.52084 -122.71655 20985 ft 368 kts
2026-05-07 06:29 44.54606 -122.71404 20510 ft 365 kts
2026-05-07 06:29 44.57150 -122.71151 20152 ft 358 kts
2026-05-07 06:30 44.59583 -122.70909 19896 ft 349 kts
2026-05-07 06:30 44.62008 -122.70666 19298 ft 350 kts
2026-05-07 06:30 44.64431 -122.70424 18762 ft 350 kts
2026-05-07 06:30 44.66846 -122.70181 18337 ft 346 kts 360°
2026-05-07 06:31 44.69220 -122.69942 17893 ft 342 kts 359°
2026-05-07 06:31 44.71595 -122.69702 17423 ft 340 kts 359°
2026-05-07 06:31 44.73939 -122.69466 16959 ft 337 kts 359°
2026-05-07 06:31 44.76270 -122.69231 16501 ft 334 kts 359°
2026-05-07 06:32 44.78582 -122.68998 16042 ft 332 kts 358°
2026-05-07 06:32 44.80832 -122.68772 15904 ft 319 kts 358°
2026-05-07 06:32 44.83032 -122.68551 15522 ft 318 kts 358°
2026-05-07 06:32 44.85257 -122.68328 15087 ft 321 kts 358°
2026-05-07 06:33 44.87487 -122.68103 14497 ft 328 kts 358°
2026-05-07 06:33 44.89808 -122.67873 13986 ft 328 kts 358°
2026-05-07 06:33 44.92043 -122.67645 13631 ft 320 kts 359°
2026-05-07 06:33 44.94211 -122.67426 13498 ft 307 kts 359°
2026-05-07 06:34 44.96296 -122.67134 13350 ft 296 kts
2026-05-07 06:34 44.98272 -122.66529 13184 ft 289 kts
2026-05-07 06:34 45.00201 -122.65711 12799 ft 288 kts 11°
2026-05-07 06:34 45.02108 -122.64853 12309 ft 289 kts 11°
2026-05-07 06:35 45.04023 -122.64001 11888 ft 288 kts 11°
2026-05-07 06:35 45.05926 -122.63161 11482 ft 286 kts 10°
2026-05-07 06:35 45.07816 -122.62332 11061 ft 285 kts 10°
2026-05-07 06:35 45.09714 -122.61501 10714 ft 285 kts 10°
2026-05-07 06:36 45.11562 -122.60466 10342 ft 291 kts 21°
2026-05-07 06:36 45.13279 -122.58938 10125 ft 287 kts 27°
2026-05-07 06:36 45.14888 -122.57324 9901 ft 284 kts 29°
2026-05-07 06:36 45.16469 -122.55675 9548 ft 282 kts 29°
2026-05-07 06:37 45.18070 -122.54006 9189 ft 280 kts 29°
2026-05-07 06:37 45.19631 -122.52381 8839 ft 278 kts 30°
2026-05-07 06:37 45.21183 -122.50763 8486 ft 276 kts 30°
2026-05-07 06:37 45.22724 -122.49159 8137 ft 273 kts 30°
2026-05-07 06:38 45.24233 -122.47587 7797 ft 272 kts 30°
2026-05-07 06:38 45.25769 -122.45987 7445 ft 271 kts 30°
2026-05-07 06:38 45.27261 -122.44433 7105 ft 270 kts 30°
2026-05-07 06:38 45.28772 -122.42857 6762 ft 268 kts 30°
2026-05-07 06:39 45.30277 -122.41289 6423 ft 266 kts 30°
2026-05-07 06:39 45.31767 -122.39737 6087 ft 266 kts 30°
2026-05-07 06:39 45.33259 -122.38182 5746 ft 266 kts 30°
2026-05-07 06:39 45.34765 -122.36712 5398 ft 261 kts 23°
2026-05-07 06:40 45.36416 -122.35733 5055 ft 253 kts 12°
2026-05-07 06:40 45.38111 -122.35045 4719 ft 252 kts
2026-05-07 06:40 45.39793 -122.34437 4420 ft 252 kts
2026-05-07 06:40 45.41460 -122.33815 4263 ft 243 kts
2026-05-07 06:41 45.43086 -122.33194 4118 ft 233 kts
2026-05-07 06:41 45.44600 -122.32609 3989 ft 226 kts
2026-05-07 06:41 45.46107 -122.32024 3861 ft 222 kts 10°
2026-05-07 06:41 45.47577 -122.31769 3726 ft 205 kts 344°
2026-05-07 06:42 45.48793 -122.32551 3614 ft 187 kts 318°
2026-05-07 06:42 45.49622 -122.33939 3379 ft 179 kts 301°
2026-05-07 06:42 45.50225 -122.35415 3196 ft 170 kts 296°
2026-05-07 06:42 45.50732 -122.36900 3039 ft 162 kts 292°
2026-05-07 06:43 45.51217 -122.38354 2825 ft 164 kts 295°
2026-05-07 06:43 45.51751 -122.39753 2644 ft 157 kts 297°
2026-05-07 06:43 45.52264 -122.41070 2496 ft 146 kts 297°
2026-05-07 06:43 45.52742 -122.42298 2308 ft 140 kts 297°
2026-05-07 06:44 45.53225 -122.43540 2121 ft 143 kts 297°
2026-05-07 06:44 45.53708 -122.44780 1884 ft 144 kts 298°
2026-05-07 06:44 45.54181 -122.45994 1747 ft 143 kts 301°
2026-05-07 06:44 45.54656 -122.47204 1571 ft 140 kts 301°
2026-05-07 06:45 45.55150 -122.48466 1371 ft 139 kts 302°
2026-05-07 06:45 45.55617 -122.49656 1189 ft 136 kts 302°
2026-05-07 06:45 45.56075 -122.50826 1014 ft 134 kts 302°
2026-05-07 06:45 45.56529 -122.51987 838 ft 134 kts 301°
2026-05-07 06:46 45.56992 -122.53167 653 ft 138 kts 299°
2026-05-07 06:46 45.57467 -122.54386 479 ft 143 kts 298°
2026-05-07 06:46 45.57962 -122.55659 283 ft 145 kts 298°
2026-05-07 06:46 45.58438 -122.56886 104 ft 144 kts 297°
2026-05-07 06:47 45.58901 -122.58065 40 ft 120 kts 299°
2026-05-07 06:47 45.59179 -122.58787 38 ft 28 kts 296°
2026-05-07 06:47 45.59207 -122.58859 38 ft 7 kts 300°
2026-05-07 06:47 45.59234 -122.58925 38 ft 9 kts 300°
2026-05-07 06:48 45.59261 -122.59021 38 ft 11 kts 276°
2026-05-07 06:48 45.59263 -122.59092 38 ft 0 kts 271°
2026-05-07 06:49 45.59263 -122.59094 38 ft 2 kts 271°
2026-05-07 06:50 45.59264 -122.59135 38 ft 5 kts 271°
2026-05-07 06:50 45.59264 -122.59184 38 ft 4 kts 271°
2026-05-07 06:50 45.59263 -122.59216 38 ft 10 kts 259°
2026-05-07 06:50 45.59242 -122.59329 38 ft 9 kts 249°
2026-05-07 06:51 45.59214 -122.59404 38 ft 8 kts 225°
2026-05-07 06:51 45.59174 -122.59442 38 ft 5 kts 207°
2026-05-07 06:51 45.59160 -122.59452 38 ft 0 kts 207°